When you browse on this site, cookies collect data to enhance your experience and personalize the content and advertising you see.
Visit our Privacy Policy to learn more. By continuing to use the site, you agree to this use of cookies and data.
  • In Romania
  • List of Countries
  • For 7 days
  • Water Temperature
  • Weather Map
  • Weather Widgets
  • user-avatar
    Login

    Hourly Weather Dęblin

    Today, 15 October, Tuesday

    Time Temperature Precipitation Wind Pressure Humidity
    00:00 +15°C° 0 mm 2 mps 752 mmHg 77%
    01:00 +15°C° 0 mm 2 mps 752 mmHg 77%
    02:00 +14°C° 0 mm 2 mps 752 mmHg 78%
    03:00 +13°C° 0 mm 3 mps 752 mmHg 79%
    04:00 +12°C° 0 mm 3 mps 751 mmHg 79%
    05:00 +13°C° 0 mm 3 mps 751 mmHg 78%
    06:00 +13°C° 0 mm 4 mps 751 mmHg 76%
    07:00 +13°C° 0 mm 4 mps 751 mmHg 74%
    08:00 +15°C° 0 mm 4 mps 751 mmHg 68%
    09:00 +17°C° 0 mm 5 mps 751 mmHg 62%
    10:00 +20°C° 0 mm 6 mps 750 mmHg 56%
    11:00 +20°C° 0 mm 6 mps 750 mmHg 53%
    12:00 +21°C° 0 mm 6 mps 750 mmHg 51%
    13:00 +22°C° 0 mm 5 mps 750 mmHg 49%
    14:00 +21°C° 0 mm 5 mps 749 mmHg 52%
    15:00 +21°C° 0 mm 5 mps 749 mmHg 55%
    16:00 +20°C° 0 mm 4 mps 748 mmHg 58%
    17:00 +19°C° 0 mm 5 mps 748 mmHg 60%
    18:00 +19°C° 0 mm 5 mps 748 mmHg 63%
    19:00 +17°C° 0 mm 5 mps 748 mmHg 65%
    20:00 +16°C° 0 mm 5 mps 748 mmHg 66%
    21:00 +16°C° 0 mm 5 mps 748 mmHg 67%
    22:00 +15°C° 0 mm 5 mps 748 mmHg 68%
    23:00 +15°C° 0 mm 5 mps 748 mmHg 69%

    Tomorrow, 16 October, Wednesday

    Time Temperature Precipitation Wind Pressure Humidity
    00:00 +15°C° 0 mm 5 mps 748 mmHg 69%
    01:00 +15°C° 0 mm 5 mps 748 mmHg 70%
    02:00 +14°C° 0 mm 5 mps 748 mmHg 71%
    03:00 +14°C° 0 mm 5 mps 747 mmHg 72%
    04:00 +14°C° 0 mm 5 mps 747 mmHg 73%
    05:00 +14°C° 0 mm 4 mps 747 mmHg 74%
    06:00 +14°C° 0 mm 4 mps 747 mmHg 74%
    07:00 +14°C° 0 mm 4 mps 747 mmHg 74%
    08:00 +15°C° 0 mm 5 mps 748 mmHg 71%
    09:00 +17°C° 0 mm 5 mps 748 mmHg 68%
    10:00 +20°C° 0 mm 6 mps 749 mmHg 64%
    11:00 +20°C° 0 mm 6 mps 749 mmHg 62%
    12:00 +20°C° 0 mm 6 mps 749 mmHg 60%
    13:00 +21°C° 0 mm 6 mps 750 mmHg 58%
    14:00 +20°C° 0 mm 5 mps 750 mmHg 60%
    15:00 +19°C° 0 mm 5 mps 750 mmHg 61%
    16:00 +18°C° 0 mm 4 mps 750 mmHg 63%
    17:00 +17°C° 0 mm 4 mps 750 mmHg 66%
    18:00 +14°C° 0 mm 3 mps 750 mmHg 68%
    19:00 +13°C° 0 mm 3 mps 751 mmHg 71%
    20:00 +13°C° 0 mm 3 mps 751 mmHg 72%
    21:00 +12°C° 0 mm 3 mps 751 mmHg 74%
    22:00 +12°C° 0 mm 3 mps 752 mmHg 75%
    23:00 +11°C° 0 mm 3 mps 752 mmHg 76%

    Day after tomorrow, 17 October, Thursday

    Time Temperature Precipitation Wind Pressure Humidity
    00:00 +11°C° 0 mm 3 mps 752 mmHg 77%
    01:00 +11°C° 0 mm 4 mps 752 mmHg 78%
    02:00 +10°C° 0 mm 4 mps 752 mmHg 78%
    03:00 +10°C° 0 mm 4 mps 752 mmHg 78%
    04:00 +10°C° 0 mm 4 mps 752 mmHg 77%
    05:00 +10°C° 0 mm 4 mps 752 mmHg 77%
    06:00 +10°C° 0 mm 4 mps 752 mmHg 76%
    07:00 +10°C° 0 mm 4 mps 752 mmHg 75%
    08:00 +12°C° 0 mm 4 mps 752 mmHg 69%
    09:00 +13°C° 0 mm 4 mps 753 mmHg 63%
    10:00 +15°C° 0 mm 4 mps 753 mmHg 57%
    11:00 +17°C° 0 mm 4 mps 753 mmHg 56%
    12:00 +18°C° 0 mm 4 mps 753 mmHg 54%
    13:00 +19°C° 0 mm 4 mps 753 mmHg 52%
    14:00 +18°C° 0 mm 3 mps 753 mmHg 56%
    15:00 +17°C° 0 mm 2 mps 753 mmHg 60%
    16:00 +17°C° 0 mm 2 mps 753 mmHg 64%
    17:00 +16°C° 0 mm 1 mps 753 mmHg 66%
    18:00 +15°C° 0 mm 1 mps 753 mmHg 68%
    19:00 +14°C° 0 mm 1 mps 753 mmHg 70%
    20:00 +14°C° 0 mm 1 mps 753 mmHg 71%
    21:00 +14°C° 0 mm 1 mps 753 mmHg 72%
    22:00 +14°C° 0 mm 1 mps 753 mmHg 73%
    23:00 +14°C° 0 mm 1 mps 753 mmHg 72%

    18 October, Friday

    Time Temperature Precipitation Wind Pressure Humidity
    00:00 +14°C° 0 mm 1 mps 753 mmHg 71%
    01:00 +14°C° 0 mm 1 mps 753 mmHg 71%
    02:00 +14°C° 0 mm 1 mps 753 mmHg 70%
    03:00 +14°C° 0 mm 1 mps 753 mmHg 69%
    04:00 +14°C° 0 mm 1 mps 753 mmHg 69%
    05:00 +14°C° 0 mm 1 mps 753 mmHg 69%
    06:00 +14°C° 0 mm 1 mps 753 mmHg 69%
    07:00 +14°C° 0 mm 2 mps 753 mmHg 70%
    08:00 +15°C° 0 mm 2 mps 754 mmHg 67%
    09:00 +16°C° 0 mm 2 mps 754 mmHg 64%
    10:00 +17°C° 0 mm 2 mps 754 mmHg 61%
    11:00 +19°C° 0 mm 1 mps 754 mmHg 59%
    12:00 +20°C° 0 mm 1 mps 754 mmHg 57%
    13:00 +20°C° 0 mm 1 mps 753 mmHg 56%
    14:00 +19°C° 0 mm 1 mps 753 mmHg 59%
    15:00 +17°C° 0 mm 0 mps 753 mmHg 63%
    16:00 +16°C° 0 mm 0 mps 753 mmHg 66%
    17:00 +15°C° 0 mm 0 mps 753 mmHg 68%
    18:00 +15°C° 0 mm 0 mps 753 mmHg 71%
    19:00 +15°C° 0 mm 1 mps 754 mmHg 73%
    20:00 +14°C° 0 mm 1 mps 754 mmHg 75%
    21:00 +14°C° 0 mm 1 mps 754 mmHg 77%
    22:00 +14°C° 0 mm 1 mps 754 mmHg 79%
    23:00 +13°C° 0 mm 1 mps 754 mmHg 81%

    19 October, Saturday

    Time Temperature Precipitation Wind Pressure Humidity
    00:00 +13°C° 0 mm 1 mps 753 mmHg 83%
    01:00 +13°C° 0 mm 1 mps 753 mmHg 85%
    02:00 +13°C° 0 mm 1 mps 753 mmHg 86%
    03:00 +13°C° 0 mm 1 mps 753 mmHg 87%
    04:00 +13°C° 0 mm 1 mps 753 mmHg 87%
    05:00 +13°C° 0 mm 1 mps 753 mmHg 87%
    06:00 +13°C° 0 mm 1 mps 753 mmHg 86%
    07:00 +13°C° 0 mm 1 mps 753 mmHg 86%
    08:00 +15°C° 0 mm 1 mps 753 mmHg 80%
    09:00 +16°C° 0 mm 1 mps 753 mmHg 74%
    10:00 +19°C° 0 mm 1 mps 753 mmHg 68%
    11:00 +19°C° 0 mm 1 mps 753 mmHg 65%
    12:00 +20°C° 0 mm 1 mps 753 mmHg 61%
    13:00 +21°C° 0 mm 1 mps 752 mmHg 58%
    14:00 +19°C° 0 mm 2 mps 752 mmHg 61%
    15:00 +19°C° 0 mm 2 mps 752 mmHg 65%
    16:00 +18°C° 0 mm 2 mps 752 mmHg 68%
    17:00 +17°C° 0 mm 2 mps 752 mmHg 70%
    18:00 +17°C° 0 mm 2 mps 752 mmHg 72%
    19:00 +16°C° 0 mm 3 mps 752 mmHg 74%
    20:00 +16°C° 0 mm 3 mps 751 mmHg 75%
    21:00 +16°C° 0 mm 3 mps 751 mmHg 77%
    22:00 +14°C° 0 mm 3 mps 751 mmHg 78%
    23:00 +14°C° 0 mm 3 mps 751 mmHg 78%

    20 October, Sunday

    Time Temperature Precipitation Wind Pressure Humidity
    00:00 +14°C° 0 mm 3 mps 751 mmHg 78%
    01:00 +14°C° 0 mm 3 mps 750 mmHg 78%
    02:00 +14°C° 0 mm 3 mps 750 mmHg 78%
    03:00 +13°C° 0 mm 3 mps 750 mmHg 78%
    04:00 +13°C° 0 mm 4 mps 749 mmHg 78%
    05:00 +13°C° 0 mm 4 mps 749 mmHg 76%
    06:00 +13°C° 0 mm 4 mps 749 mmHg 74%
    07:00 +14°C° 0 mm 4 mps 749 mmHg 73%
    08:00 +15°C° 0 mm 5 mps 749 mmHg 66%
    09:00 +17°C° 0 mm 6 mps 749 mmHg 59%
    10:00 +20°C° 0 mm 6 mps 749 mmHg 53%
    11:00 +21°C° 0 mm 7 mps 749 mmHg 50%
    12:00 +22°C° 0 mm 7 mps 749 mmHg 47%
    13:00 +23°C° 0 mm 8 mps 748 mmHg 44%
    14:00 +22°C° 0 mm 7 mps 748 mmHg 47%
    15:00 +21°C° 0 mm 6 mps 748 mmHg 50%
    16:00 +20°C° 0 mm 5 mps 748 mmHg 52%
    17:00 +19°C° 0 mm 5 mps 748 mmHg 54%
    18:00 +19°C° 0 mm 5 mps 748 mmHg 56%
    19:00 +17°C° 0 mm 5 mps 749 mmHg 58%
    20:00 +17°C° 0 mm 5 mps 749 mmHg 60%
    21:00 +16°C° 0 mm 5 mps 749 mmHg 61%
    22:00 +16°C° 0 mm 5 mps 749 mmHg 63%
    23:00 +17°C° 0 mm 4 mps 750 mmHg 65%
    Show more